Regional Weather Roundup
Issued by NWS Little Rock, AR

Home | Current Version | Previous Version | Text Only | Print | Product List | Glossary On
Versions: 1 2 3 4 5 6 7 8 9 10 11 12 13 14 15 16 17 18 19 20 21 22 23 24 25 26 27 28 29 30 31 32 33 34 35 36 37 38 39 40 41 42 43 44 45 46 47 48 49 50
000
ASUS44 KLZK 210510
RWRLZK
ARKANSAS STATE WEATHER ROUNDUP
NATIONAL WEATHER SERVICE LITTLE ROCK AR
ISSUED BY NATIONAL WEATHER SERVICE MEMPHIS TN
1200 AM CDT THU SEP 21 2017

NOTE: "FAIR" INDICATES FEW OR NO CLOUDS BELOW 12,000 FEET WITH NO
SIGNIFICANT WEATHER AND/OR OBSTRUCTIONS TO VISIBILITY.

ARZ001-003-010-029-210600-
NORTHWEST ARKANSAS

CITY           SKY/WX    TMP DP  RH WIND       PRES   REMARKS
FORT SMITH     CLEAR     81  71  71 SE5       29.92R
HARRISON       CLEAR     74  70  87 SE5       29.98R
BENTONVILLE    CLEAR     77  70  79 S6        29.98R
ROGERS         CLEAR     76  70  82 S7        29.98R
SILOAM SPGS    CLEAR     78  70  76 S8        29.96R
HIGHFILL       CLEAR     78  71  79 S9        29.96R
$$

ARZ004-005-016-210600-
NORTH CENTRAL ARKANSAS

CITY           SKY/WX    TMP DP  RH WIND       PRES   REMARKS
BATESVILLE     CLEAR    N/A N/A N/A S5        29.97S
FLIPPIN        CLEAR     80  71  74 VRB3      29.96R
MTN HOME       CLEAR     76  71  85 S3        29.96R
$$

ARZ040-041-210600-
WEST CENTRAL ARKANSAS

CITY           SKY/WX    TMP DP  RH WIND       PRES   REMARKS
MOUNT IDA      CLEAR     81  71  71 VRB6      29.95R
$$

ARZ017-025-026-028-210600-
NORTHEAST ARKANSAS

CITY           SKY/WX    TMP DP  RH WIND       PRES   REMARKS
JONESBORO      CLEAR     73  73 100 CALM      29.97R
NEWPORT        CLEAR     74  71  91 S6        29.97R
BLYTHEVILLE    CLEAR     76  73  91 S5        29.98S
$$

ARZ022-033-042-044-210600-
CENTRAL ARKANSAS

CITY           SKY/WX    TMP DP  RH WIND       PRES   REMARKS
LITTLE ROCK    CLEAR     75  74  96 CALM      29.96S
JACKSONVILLE   CLEAR     79  74  84 S3        29.96S
SEARCY         CLEAR     74  73  97 CALM      29.98S FOG
HOT SPRINGS    CLEAR     81  71  71 CALM      29.97S
RUSSELLVILLE   CLEAR     77  72  84 CALM      29.94R
$$

ARZ036-210600-
EAST ARKANSAS

CITY           SKY/WX    TMP DP  RH WIND       PRES   REMARKS
WEST MEMPHIS   CLEAR     75  74  96 CALM      29.97S
$$

ARZ050-070-073-210600-
SOUTHWEST ARKANSAS

CITY           SKY/WX    TMP DP  RH WIND       PRES   REMARKS
TEXARKANA      CLEAR     76  69  79 S8        29.97R
EL DORADO      CLEAR     74  68  81 S3        29.98R
DEQUEEN        CLEAR     80  74  81 S7        29.94R
$$

ARZ056-057-069-210600-
SOUTHEAST ARKANSAS

CITY           SKY/WX    TMP DP  RH WIND       PRES   REMARKS
PINE BLUFF     CLEAR     75  72  90 CALM      29.97R
STUTTGART      CLEAR     75  71  87 SE6       29.97S
MONTICELLO     CLEAR     77  72  84 S6        29.98R
$$




USA.gov is the U.S. government's official web portal to all federal, state and local government web resources and services.